Showing default

FLOCK 4H 34, 66737

Orbit data source: Space-Track

FLOCK 4H 34, 66737 is a payload satellite owned by Planet (US) in SSO that was launched on Fri, 28 Nov 2025 UTC via an FALCON 9 launch vehicle from the Air Force Western Test Range (AFWTR). Payload-class satellites include a variety of spacecraft equipped with specific instruments for various scientific and technological missions. These include communications satellites like Starlink; space stations such as the ISS; scientific satellites like the Hubble; Earth observation satellites from companies like Planet Labs, Umbra, and HawkEye 360; GPS; miniature CubeSats for education and research; and military/defense satellites.

Loading next visibility...
Identifier
66737, 2025-276BZ
Orbit
SSO
Country
Flag of USUS
Related business
Manufacturer
Planet
Mission
Operational Commercial Imaging
Bus & Motor
CUBESAT 3U, Unknown motor
Mass
5.7 kg wet, 5.7 kg dry
Launch date (UTC)
2025-11-28 (9 months ago)
Launch vehicle
FALCON 9
Launch site
Air Force Western Test Range (AFWTR)
Object type
Payload
Rocket body
Debris
Shape & HBR
Box + 2 Pan, 1.0 m
Radar Cross Section
0.072 m², Medium (>0.1 m² and < 1m²)

Expand to show TLE details & history
Last TLE update: 16 hours ago

TLE from 16 hours ago
0 FLOCK 4H 34
1 66737U 25276BZ  26238.18838255  .00005460  00000-0  24721-3 0  9996
2 66737  97.4197 310.9820 0003977  77.4725 282.6955 15.21286410 40325
Epoch: 2026-08-26T04:31Z
TLE epoch observation values (Epoch: 2026-08-26T04:31:16.252Z)
Latitude
-0.00006°
Longitude
-91.28067°
Altitude
504.451 km
Speed
7.612 km/s
True Right ascension
20h 43m 55s
True Declination
0° 00' 00"
Sunlit
Object was in full shadow at epoch
Visualization orbit readout
Latitude
Unknown
Longitude
Unknown
Altitude
Unknown
Speed
Unknown
Apparent Right ascension
Unknown
Apparent Declination
Unknown
Sunlit
N/A
Visualization observer readout
Local Sidereal Time
11:46:04
Azimuth
Unknown
Elevation
Unknown
Doppler factor
Unknown
Orbital elements
Apogee altitude
501.659 km
Perigee altitude
496.189 km
Semi-major axis
6,877.061 km
Eccentricity
0.0004
Inclination
97.4197°
RAAN
310.982°
Arg. of periapsis
77.4725°
True anomaly
282.65104°
Mean anomaly
282.6955°
Eccentric anomaly
282.67327°
Mean motion
3.80574 °/min
Orbital period
94.59 mins
BSTAR
0.00024721
Loading maneuver chart data...
Computing Atmospheric mass density...
Loading historical data...
Loading historical data...
Loading historical data...
Loading historical data...
Loading historical data...
Loading historical data...
Loading historical data...

Documentation

Showing up to 5 results
|